Location: Banios
(43.0451°N, 0.2335°E)
Time: 19:04:10
(UTC+00:00)

A-11 Canister half - Pass Details

Date: 08 December 2021
Orbit: 1516 x 1684 km, 47.2° (Epoch: 23 January)

Event Time Altitude Azimuth Distance (km) Brightness Sun altitude
Rises 05:39:41 0° 229° (SW) 4,710 11.2 -17.3°
Reaches altitude 10° 05:42:43 10° 226° (SW) 3,748 10.7 -16.7°
Maximum altitude 05:52:08 67° 147° (SSE) 1,714 9.4 -15.1°
Drops below altitude 10° 06:01:56 10° 67° (ENE) 3,892 11.8 -13.4°
Sets 06:05:09 0° 65° (ENE) 4,899 12.4 -12.8°
